Satellite-Ground Cal/Val Region Overpasses Predictions

Prediction of Satellite NPP Overpassing Cal/Val Region: PacNW

Region Location: (Latitude: 10.00, Longitude: 139.50) to (Latitude: 22.70, Longitude: 165.60).

Table of predicted overpasses for the next 14.0 days since TLE Epoch: 8/22/2020
Interval Starting Time Starting Location Ending Time Ending Location
1 08/23/2020 03:23:46 ( 10.04, 148.80) 08/23/2020 03:27:21 ( 22.66, 145.79)
2 08/23/2020 15:55:38 ( 22.68, 146.04) 08/23/2020 15:59:13 ( 10.06, 143.04)
3 08/24/2020 03:04:44 ( 10.04, 153.55) 08/24/2020 03:08:19 ( 22.66, 150.55)
4 08/24/2020 15:36:37 ( 22.68, 150.80) 08/24/2020 15:40:12 ( 10.06, 147.79)
5 08/25/2020 02:45:43 ( 10.04, 158.31) 08/25/2020 02:49:18 ( 22.66, 155.30)
6 08/25/2020 15:17:35 ( 22.68, 155.55) 08/25/2020 15:21:11 ( 10.00, 152.54)
7 08/26/2020 02:26:41 ( 10.04, 163.07) 08/26/2020 02:30:16 ( 22.66, 160.06)
8 08/26/2020 14:58:34 ( 22.68, 160.31) 08/26/2020 15:02:10 ( 10.00, 157.29)
9 08/27/2020 02:10:22 ( 19.56, 165.59) 08/27/2020 02:11:15 ( 22.66, 164.82)
10 08/27/2020 03:49:10 ( 10.05, 142.45) 08/27/2020 03:52:41 ( 22.43, 139.50)
11 08/27/2020 14:39:33 ( 22.68, 165.07) 08/27/2020 14:43:09 ( 10.00, 162.05)
12 08/27/2020 16:21:03 ( 22.68, 139.69) 08/27/2020 16:21:16 ( 21.91, 139.50)
13 08/28/2020 03:30:08 ( 10.05, 147.21) 08/28/2020 03:33:43 ( 22.67, 144.20)
14 08/28/2020 16:02:01 ( 22.68, 144.45) 08/28/2020 16:05:36 ( 10.06, 141.45)
15 08/29/2020 03:11:07 ( 10.05, 151.96) 08/29/2020 03:14:42 ( 22.67, 148.96)
16 08/29/2020 15:43:00 ( 22.67, 149.21) 08/29/2020 15:46:35 ( 10.06, 146.20)
17 08/30/2020 02:52:05 ( 10.05, 156.72) 08/30/2020 02:55:40 ( 22.67, 153.71)
18 08/30/2020 15:23:58 ( 22.67, 153.96) 08/30/2020 15:27:33 ( 10.05, 150.96)
19 08/31/2020 02:33:04 ( 10.05, 161.48) 08/31/2020 02:36:39 ( 22.67, 158.47)
20 08/31/2020 15:04:57 ( 22.67, 158.72) 08/31/2020 15:08:32 ( 10.05, 155.72)
21 09/01/2020 02:14:49 ( 12.81, 165.60) 09/01/2020 02:17:37 ( 22.68, 163.23)
22 09/01/2020 03:55:32 ( 10.06, 140.86) 09/01/2020 03:57:11 ( 15.87, 139.51)
23 09/01/2020 14:45:55 ( 22.67, 163.48) 09/01/2020 14:49:30 ( 10.05, 160.47)
24 09/02/2020 03:36:30 ( 10.00, 145.63) 09/02/2020 03:40:06 ( 22.68, 142.61)
25 09/02/2020 14:30:02 ( 11.64, 165.59) 09/02/2020 14:30:29 ( 10.05, 165.23)
26 09/02/2020 16:08:24 ( 22.66, 142.86) 09/02/2020 16:11:59 ( 10.05, 139.85)
27 09/03/2020 03:17:28 ( 10.00, 150.38) 09/03/2020 03:21:04 ( 22.69, 147.36)
28 09/03/2020 15:49:22 ( 22.66, 147.62) 09/03/2020 15:52:57 ( 10.04, 144.61)
29 09/04/2020 02:58:27 ( 10.01, 155.14) 09/04/2020 03:02:03 ( 22.69, 152.12)
30 09/04/2020 15:30:21 ( 22.66, 152.37) 09/04/2020 15:33:56 ( 10.04, 149.37)
31 09/05/2020 02:39:26 ( 10.01, 159.90) 09/05/2020 02:43:02 ( 22.69, 156.88)
